Regional Weather Roundup
Issued by NWS Newport/Morehead, NC

Current Version | Previous Version | Text Only | Print | Product List | Glossary Off
Versions: 1 2 3 4 5 6 7 8 9 10 11 12 13 14 15 16 17 18 19 20 21 22 23 24 25 26 27 28 29 30 31 32 33 34 35 36 37 38 39 40 41 42 43 44 45 46 47 48 49 50
000 ASUS42 KMHX 172113 RWRMHX WEATHER ROUNDUP FOR EASTERN NORTH CAROLINA NATIONAL WEATHER SERVICE NEWPORT/MOREHEAD CITY NC 400 PM EST FRI NOV 17 2017 NOTE: "FAIR" INDICATES FEW OR NO CLOUDS BELOW 12,000 FEET WITH NO SIGNIFICANT WEATHER AND/OR OBSTRUCTIONS TO VISIBILITY NCZ015>017-031-032-045>047-102-103-172200- NORTH COAST CITY SKY/WX TMP DP RH WIND PRES REMARKS EDENTON MOCLDY 53 36 52 CALM 30.17R ELIZABETH CITY PTCLDY 52 35 52 N7 30.15R KITTY HAWK PTCLDY 49 36 59 CALM 30.14R MANTEO PTCLDY 50 37 60 N3 30.16R $$ NCZ045>047-081-094-103-104-172200- CENTRAL COAST CITY SKY/WX TMP DP RH WIND PRES REMARKS FRISCO CLEAR 51 42 71 VRB6 30.15R $$ NCZ095-097-098-100-101-172200- SOUTHERN COAST CITY SKY/WX TMP DP RH WIND PRES REMARKS BEAUFORT MOSUNNY 55 38 52 N8 30.15R CEDAR ISLAND NOT AVBL JACKSONVILLE SUNNY 59 36 42 NE6 30.15R PINEY ISLAND NOT AVBL WILMINGTON SUNNY 60 34 37 N3 30.15S $$ NCZ011>013-027>030-043-044-078>080-089-090>093-098-172200- COASTAL PLAIN CITY SKY/WX TMP DP RH WIND PRES REMARKS AHOSKIE CLOUDY 50 33 50 CALM 30.17R CLINTON SUNNY 59 34 40 NE3 30.16R ELIZABETHTOWN NOT AVBL GOLDSBORO CLOUDY 56 32 40 CALM 30.14F GREENVILLE MOSUNNY 55 32 41 CALM 30.17R HAVELOCK NOT AVBL KENANSVILLE CLOUDY 57 32 38 N6 30.16S KINSTON MOSUNNY 55 34 44 NW3 30.16S NEW BERN CLOUDY 52 38 58 NE3 30.16S RICHLANDS CLOUDY 57 35 43 NE3 30.16R ROCKY MOUNT MOSUNNY 56 32 40 CALM 30.16S WASHINGTON CLOUDY 56 33 43 NW3 30.16S WHITEVILLE SUNNY 58 34 40 CALM 30.14F $$ AMZ130-135-150-152-154-156-158-170-250-252-270-ANZ085-086-088-633-658-670-172200- MARINE OBSERVATIONS STATION/POSITION TIME TEMP WIND PRES WAVE SWELL AIR SEA DIR/SP/G HT/PER HT/PER (UTC) (F) (DEG/KT/KT) (MB) (FT/S) (FT/S) CHESAPEAKE LIGHT NOT AVBL 64 E VA BEACH 2050 52 61 320/ 14/ 17 1020.4 5/ 7 3/12 DUCK NOT AVBL 2 E DUCK 2100 60 N/A 4/ 7 2/13 OREGON INLET NOT AVBL 13E OREGON INLT 2048 63 N/A 6/ 7 2/13 HATTERAS CG NOT AVBL DIAMOND BUOY 2100 54 65 10/ 16/ 19 1020.9 CAPE LOOKOUT 2100 54 10/ 8/ 9 1021.4 BEAUFORT LAB NOT AVBL 30 SE NEW RVR IN 2008 55 71 60/ 8/ 12 1020.6 30 SE NEW RVR IN 2030 71 N/A 4/13 2/13 27 SE WRIGHTSVLE 2008 56 68 50/ 8/ 14 1020.8 5 SE WRIGHTSVLE 2008 55 64 70/ 4/ 8 1020.8 225 S CAPE HAT 2050 69 77 30/ 12/ 17 1017.9 8/ 7 7/ 7 41 SE CHARLESTON 2100 63 76 40/ 12/ 16 1020.1 $$

USA.gov is the U.S. government's official web portal to all federal, state and local government web resources and services.